Simultaneous Nadir Overpasses (SNOs) Predictions

Prediction of SNOs between GOES-17 and METOP-C Satellite Orbit:

Table of predicted SNOs for the next 14.0 days since TLE Epoch: 11/26/2022
Index Date Time (GOES-17) GOES-17 Lat,Lon METOP-C Lat,Lon Distance(km) Time Diff (sec)
1 11/27/2022 18:39:14 -0.01,-137.32 -0.13,-136.90 48.79 80
2 11/29/2022 06:55:33 0.01,-137.31 -0.92,-141.49 475.92 80
3 11/30/2022 06:37:33 0.01,-137.30 0.16,-136.49 92.29 80
4 12/01/2022 18:53:48 -0.01,-137.29 0.81,-141.06 429.47 80
5 12/02/2022 18:35:48 -0.01,-137.28 -0.28,-136.06 138.66 80
6 12/04/2022 06:52:07 0.02,-137.26 -0.76,-140.65 386.28 80
7 12/05/2022 06:34:09 0.02,-137.25 0.38,-135.66 181.49 80
8 12/06/2022 18:50:22 -0.02,-137.23 0.64,-140.23 341.21 80
9 12/07/2022 18:32:23 -0.02,-137.21 -0.45,-135.23 226.18 80
10 12/09/2022 06:48:42 0.02,-137.18 -0.58,-139.81 300.01 80
